contact:dominique.lefevre@mio.osupytheas.fr, maurice.libes@osupytheas.fr, didier.mallarino@osupytheas.fr
Project:EMSO http://www.emso-fr.org/EMSO-France
Depth: 2436.0 m
Title:EMSO Ligure Ouest : Data MII capteur MICROCAT
DateTime_Computer,Latitude,Longitude,Temperature,Conductivity,Pressure,DateTime_Instrument
DateTime_Computer,Latitude,Longitude,degC,S m-1,dbar,DateTime_Instrument
2017-11-13T00:03:02Z,42.805,6.029,13.2941,4.59958,2471.889,2017-11-13T02:04:29Z
2017-11-13T00:06:05Z,42.805,6.029,13.2943,4.59957,2471.866,2017-11-13T02:07:32Z
2017-11-13T00:09:08Z,42.805,6.029,13.2935,4.59957,2471.934,2017-11-13T02:10:35Z
2017-11-13T00:12:11Z,42.805,6.029,13.2936,4.59956,2471.897,2017-11-13T02:13:38Z
2017-11-13T00:15:13Z,42.805,6.029,13.2941,4.59957,2471.889,2017-11-13T02:16:41Z
2017-11-13T00:18:16Z,42.805,6.029,13.2939,4.59956,2471.912,2017-11-13T02:19:43Z
2017-11-13T00:21:19Z,42.805,6.029,13.2935,4.59957,2471.889,2017-11-13T02:22:46Z
2017-11-13T00:24:22Z,42.805,6.029,13.2938,4.59956,2471.889,2017-11-13T02:25:49Z
2017-11-13T00:27:25Z,42.805,6.029,13.2939,4.59955,2471.889,2017-11-13T02:28:52Z
2017-11-13T00:30:28Z,42.805,6.029,13.2937,4.59957,2471.889,2017-11-13T02:31:55Z
2017-11-13T00:33:31Z,42.805,6.029,13.2936,4.59956,2471.912,2017-11-13T02:34:58Z
2017-11-13T00:36:34Z,42.805,6.029,13.2935,4.59956,2471.889,2017-11-13T02:38:01Z
2017-11-13T00:39:37Z,42.805,6.029,13.2941,4.59955,2471.897,2017-11-13T02:41:04Z
2017-11-13T00:42:39Z,42.805,6.029,13.2934,4.59961,2471.934,2017-11-13T02:44:07Z
2017-11-13T00:45:42Z,42.805,6.029,13.2934,4.59956,2471.912,2017-11-13T02:47:09Z
2017-11-13T00:48:45Z,42.805,6.029,13.2937,4.59957,2471.897,2017-11-13T02:50:12Z
2017-11-13T00:51:48Z,42.805,6.029,13.2933,4.59958,2471.912,2017-11-13T02:53:15Z
2017-11-13T00:54:51Z,42.805,6.029,13.2939,4.59956,2471.934,2017-11-13T02:56:18Z
2017-11-13T00:57:54Z,42.805,6.029,13.2936,4.59955,2471.912,2017-11-13T02:59:21Z
2017-11-13T01:00:57Z,42.805,6.029,13.2939,4.59955,2471.912,2017-11-13T03:02:24Z
2017-11-13T01:04:00Z,42.805,6.029,13.2937,4.59956,2471.912,2017-11-13T03:05:27Z
2017-11-13T01:07:03Z,42.805,6.029,13.2937,4.59954,2471.897,2017-11-13T03:08:30Z
2017-11-13T01:10:05Z,42.805,6.029,13.2938,4.59956,2471.934,2017-11-13T03:11:33Z
2017-11-13T01:13:08Z,42.805,6.029,13.2936,4.59956,2471.912,2017-11-13T03:14:36Z
2017-11-13T01:16:11Z,42.805,6.029,13.2942,4.59955,2471.934,2017-11-13T03:17:38Z
2017-11-13T01:19:14Z,42.805,6.029,13.2938,4.59956,2471.912,2017-11-13T03:20:41Z
2017-11-13T01:22:17Z,42.805,6.029,13.2936,4.59957,2471.934,2017-11-13T03:23:44Z
2017-11-13T01:25:20Z,42.805,6.029,13.2939,4.59956,2471.919,2017-11-13T03:26:47Z
2017-11-13T01:28:23Z,42.805,6.029,13.2937,4.59954,2471.912,2017-11-13T03:29:50Z
2017-11-13T01:31:26Z,42.805,6.029,13.2934,4.59956,2471.934,2017-11-13T03:32:53Z
2017-11-13T01:34:29Z,42.805,6.029,13.2939,4.59959,2471.897,2017-11-13T03:35:56Z
2017-11-13T01:37:32Z,42.805,6.029,13.2933,4.59958,2471.934,2017-11-13T03:38:59Z
2017-11-13T01:40:34Z,42.805,6.029,13.2938,4.59956,2471.919,2017-11-13T03:42:02Z
2017-11-13T01:43:37Z,42.805,6.029,13.2935,4.59954,2471.919,2017-11-13T03:45:04Z
2017-11-13T01:46:40Z,42.805,6.029,13.2939,4.59956,2471.889,2017-11-13T03:48:07Z
2017-11-13T01:49:43Z,42.805,6.029,13.2936,4.59957,2471.912,2017-11-13T03:51:10Z
2017-11-13T01:52:46Z,42.805,6.029,13.2937,4.59956,2471.912,2017-11-13T03:54:13Z
2017-11-13T01:55:49Z,42.805,6.029,13.2935,4.59956,2471.897,2017-11-13T03:57:16Z
2017-11-13T01:58:52Z,42.805,6.029,13.2942,4.59956,2471.897,2017-11-13T04:00:19Z
2017-11-13T02:01:55Z,42.805,6.029,13.2938,4.59955,2471.897,2017-11-13T04:03:22Z
2017-11-13T02:04:58Z,42.805,6.029,13.2940,4.59956,2471.934,2017-11-13T04:06:25Z
2017-11-13T02:08:00Z,42.805,6.029,13.2938,4.59956,2471.897,2017-11-13T04:09:28Z
2017-11-13T02:11:03Z,42.805,6.029,13.2935,4.59955,2471.919,2017-11-13T04:12:30Z
2017-11-13T02:14:06Z,42.805,6.029,13.2935,4.59956,2471.912,2017-11-13T04:15:33Z
2017-11-13T02:17:09Z,42.805,6.029,13.2935,4.59956,2471.934,2017-11-13T04:18:36Z
2017-11-13T02:20:12Z,42.805,6.029,13.2935,4.59955,2471.934,2017-11-13T04:21:39Z
2017-11-13T02:23:15Z,42.805,6.029,13.2935,4.59956,2471.957,2017-11-13T04:24:42Z
2017-11-13T02:26:18Z,42.805,6.029,13.2940,4.59956,2471.912,2017-11-13T04:27:45Z
2017-11-13T02:29:21Z,42.805,6.029,13.2936,4.59957,2471.919,2017-11-13T04:30:48Z
2017-11-13T02:32:24Z,42.805,6.029,13.2939,4.59955,2471.912,2017-11-13T04:33:51Z
2017-11-13T02:35:26Z,42.805,6.029,13.2937,4.59954,2471.912,2017-11-13T04:36:54Z
2017-11-13T02:38:29Z,42.805,6.029,13.2935,4.59957,2471.934,2017-11-13T04:39:56Z
2017-11-13T02:41:32Z,42.805,6.029,13.2938,4.59955,2471.934,2017-11-13T04:42:59Z
2017-11-13T02:44:35Z,42.805,6.029,13.2939,4.59954,2471.957,2017-11-13T04:46:02Z
2017-11-13T02:47:38Z,42.805,6.029,13.2936,4.59956,2471.934,2017-11-13T04:49:05Z
2017-11-13T02:50:41Z,42.805,6.029,13.2937,4.59955,2471.957,2017-11-13T04:52:08Z
2017-11-13T02:53:44Z,42.805,6.029,13.2938,4.59956,2471.934,2017-11-13T04:55:11Z
2017-11-13T02:56:47Z,42.805,6.029,13.2937,4.59955,2471.942,2017-11-13T04:58:14Z
2017-11-13T02:59:50Z,42.805,6.029,13.2938,4.59956,2471.897,2017-11-13T05:01:17Z
2017-11-13T03:02:52Z,42.805,6.029,13.2937,4.59956,2471.919,2017-11-13T05:04:20Z
2017-11-13T03:05:55Z,42.805,6.029,13.2935,4.59955,2471.934,2017-11-13T05:07:23Z
2017-11-13T03:08:58Z,42.805,6.029,13.2935,4.59955,2471.934,2017-11-13T05:10:25Z
2017-11-13T03:12:01Z,42.805,6.029,13.2935,4.59954,2471.957,2017-11-13T05:13:28Z
2017-11-13T03:15:04Z,42.805,6.029,13.2937,4.59956,2471.919,2017-11-13T05:16:31Z
2017-11-13T03:18:07Z,42.805,6.029,13.2939,4.59956,2471.919,2017-11-13T05:19:34Z
2017-11-13T03:21:10Z,42.805,6.029,13.2935,4.59954,2471.919,2017-11-13T05:22:37Z
2017-11-13T03:24:13Z,42.805,6.029,13.2935,4.59954,2471.934,2017-11-13T05:25:40Z
2017-11-13T03:27:16Z,42.805,6.029,13.2935,4.59955,2471.934,2017-11-13T05:28:43Z
2017-11-13T03:30:19Z,42.805,6.029,13.2937,4.59955,2471.942,2017-11-13T05:31:46Z
2017-11-13T03:33:21Z,42.805,6.029,13.2932,4.59956,2471.919,2017-11-13T05:34:49Z
2017-11-13T03:36:24Z,42.805,6.029,13.2938,4.59955,2471.942,2017-11-13T05:37:51Z
2017-11-13T03:39:27Z,42.805,6.029,13.2939,4.59956,2471.897,2017-11-13T05:40:54Z
2017-11-13T03:42:30Z,42.805,6.029,13.2938,4.59955,2471.957,2017-11-13T05:43:57Z
2017-11-13T03:45:33Z,42.805,6.029,13.2939,4.59956,2471.934,2017-11-13T05:47:00Z
2017-11-13T03:48:36Z,42.805,6.029,13.2935,4.59956,2471.957,2017-11-13T05:50:03Z
2017-11-13T03:51:39Z,42.805,6.029,13.2940,4.59955,2471.934,2017-11-13T05:53:06Z
2017-11-13T03:54:42Z,42.805,6.029,13.2935,4.59955,2471.897,2017-11-13T05:56:09Z
2017-11-13T03:57:45Z,42.805,6.029,13.2936,4.59954,2471.934,2017-11-13T05:59:12Z
2017-11-13T04:00:47Z,42.805,6.029,13.2938,4.59953,2471.957,2017-11-13T06:02:15Z
2017-11-13T04:03:50Z,42.805,6.029,13.2933,4.59955,2471.942,2017-11-13T06:05:17Z
2017-11-13T04:06:53Z,42.805,6.029,13.2938,4.59955,2471.934,2017-11-13T06:08:20Z
2017-11-13T04:09:56Z,42.805,6.029,13.2937,4.59955,2471.957,2017-11-13T06:11:23Z
2017-11-13T04:12:59Z,42.805,6.029,13.2941,4.59956,2471.934,2017-11-13T06:14:26Z
2017-11-13T04:16:02Z,42.805,6.029,13.2937,4.59954,2471.919,2017-11-13T06:17:29Z
2017-11-13T04:19:05Z,42.805,6.029,13.2939,4.59957,2471.919,2017-11-13T06:20:32Z
2017-11-13T04:22:08Z,42.805,6.029,13.2939,4.59956,2471.934,2017-11-13T06:23:35Z
2017-11-13T04:25:11Z,42.805,6.029,13.2937,4.59956,2471.919,2017-11-13T06:26:38Z
2017-11-13T04:28:13Z,42.805,6.029,13.2940,4.59958,2471.919,2017-11-13T06:29:41Z
2017-11-13T04:31:16Z,42.805,6.029,13.2938,4.59955,2471.934,2017-11-13T06:32:44Z
2017-11-13T04:34:19Z,42.805,6.029,13.2934,4.59954,2471.912,2017-11-13T06:35:46Z
2017-11-13T04:37:22Z,42.805,6.029,13.2937,4.59954,2471.912,2017-11-13T06:38:49Z
2017-11-13T04:40:25Z,42.805,6.029,13.2937,4.59955,2471.912,2017-11-13T06:41:52Z
2017-11-13T04:43:28Z,42.805,6.029,13.2939,4.59957,2471.912,2017-11-13T06:44:55Z
2017-11-13T04:46:31Z,42.805,6.029,13.2937,4.59956,2471.912,2017-11-13T06:47:58Z
2017-11-13T04:49:34Z,42.805,6.029,13.2940,4.59956,2471.957,2017-11-13T06:51:01Z
2017-11-13T04:52:37Z,42.805,6.029,13.2935,4.59955,2471.957,2017-11-13T06:54:04Z
2017-11-13T04:55:40Z,42.805,6.029,13.2935,4.59956,2471.957,2017-11-13T06:57:07Z
2017-11-13T04:58:42Z,42.805,6.029,13.2938,4.59955,2471.874,2017-11-13T07:00:10Z
2017-11-13T05:01:45Z,42.805,6.029,13.2936,4.59955,2471.912,2017-11-13T07:03:12Z
2017-11-13T05:04:48Z,42.805,6.029,13.2940,4.59955,2471.942,2017-11-13T07:06:15Z
2017-11-13T05:07:51Z,42.805,6.029,13.2939,4.59956,2471.942,2017-11-13T07:09:18Z
2017-11-13T05:10:54Z,42.805,6.029,13.2936,4.59954,2471.927,2017-11-13T07:12:21Z
2017-11-13T05:13:57Z,42.805,6.029,13.2937,4.59955,2471.957,2017-11-13T07:15:24Z
2017-11-13T05:17:00Z,42.805,6.029,13.2937,4.59955,2471.942,2017-11-13T07:18:27Z
2017-11-13T05:20:03Z,42.805,6.029,13.2936,4.59956,2471.964,2017-11-13T07:21:30Z
2017-11-13T05:23:06Z,42.805,6.029,13.2936,4.59955,2471.934,2017-11-13T07:24:33Z
2017-11-13T05:26:08Z,42.805,6.029,13.2938,4.59955,2471.934,2017-11-13T07:27:36Z
2017-11-13T05:29:11Z,42.805,6.029,13.2937,4.59955,2471.912,2017-11-13T07:30:38Z
2017-11-13T05:32:14Z,42.805,6.029,13.2938,4.59955,2471.912,2017-11-13T07:33:41Z
2017-11-13T05:35:17Z,42.805,6.029,13.2936,4.59956,2471.957,2017-11-13T07:36:44Z
2017-11-13T05:38:20Z,42.805,6.029,13.2936,4.59955,2471.919,2017-11-13T07:39:47Z
2017-11-13T05:41:23Z,42.805,6.029,13.2938,4.59955,2471.897,2017-11-13T07:42:50Z
2017-11-13T05:44:26Z,42.805,6.029,13.2939,4.59955,2471.919,2017-11-13T07:45:53Z
2017-11-13T05:47:29Z,42.805,6.029,13.2939,4.59956,2471.934,2017-11-13T07:48:56Z
2017-11-13T05:50:32Z,42.805,6.029,13.2936,4.59956,2471.897,2017-11-13T07:51:59Z
2017-11-13T05:53:34Z,42.805,6.029,13.2935,4.59955,2471.919,2017-11-13T07:55:02Z
2017-11-13T05:56:37Z,42.805,6.029,13.2937,4.59955,2471.919,2017-11-13T07:58:04Z
2017-11-13T05:59:40Z,42.805,6.029,13.2936,4.59956,2471.957,2017-11-13T08:01:07Z
2017-11-13T06:02:43Z,42.805,6.029,13.2939,4.59956,2471.912,2017-11-13T08:04:10Z
2017-11-13T06:05:46Z,42.805,6.029,13.2938,4.59956,2471.957,2017-11-13T08:07:13Z
2017-11-13T06:08:49Z,42.805,6.029,13.2934,4.59955,2471.889,2017-11-13T08:10:16Z
2017-11-13T06:11:52Z,42.805,6.029,13.2938,4.59956,2471.927,2017-11-13T08:13:19Z
2017-11-13T06:14:55Z,42.805,6.029,13.2935,4.59958,2471.912,2017-11-13T08:16:22Z
2017-11-13T06:17:58Z,42.805,6.029,13.2938,4.59955,2471.912,2017-11-13T08:19:25Z
2017-11-13T06:21:00Z,42.805,6.029,13.2935,4.59955,2471.934,2017-11-13T08:22:28Z
2017-11-13T06:24:03Z,42.805,6.029,13.2941,4.59955,2471.912,2017-11-13T08:25:30Z
2017-11-13T06:27:06Z,42.805,6.029,13.2939,4.59956,2471.912,2017-11-13T08:28:33Z
2017-11-13T06:30:09Z,42.805,6.029,13.2940,4.59956,2471.919,2017-11-13T08:31:36Z
2017-11-13T06:33:12Z,42.805,6.029,13.2936,4.59956,2471.912,2017-11-13T08:34:39Z
2017-11-13T06:36:15Z,42.805,6.029,13.2932,4.59957,2471.897,2017-11-13T08:37:42Z
2017-11-13T06:39:18Z,42.805,6.029,13.2937,4.59956,2471.912,2017-11-13T08:40:45Z
2017-11-13T06:42:21Z,42.805,6.029,13.2940,4.59956,2471.874,2017-11-13T08:43:48Z
2017-11-13T06:45:24Z,42.805,6.029,13.2939,4.59957,2471.897,2017-11-13T08:46:51Z
2017-11-13T06:48:27Z,42.805,6.029,13.2933,4.59958,2471.866,2017-11-13T08:49:54Z
2017-11-13T06:51:29Z,42.805,6.029,13.2939,4.59957,2471.889,2017-11-13T08:52:57Z
2017-11-13T06:54:32Z,42.805,6.029,13.2942,4.59957,2471.897,2017-11-13T08:55:59Z
2017-11-13T06:57:35Z,42.805,6.029,13.2936,4.59956,2471.874,2017-11-13T08:59:02Z
2017-11-13T07:00:38Z,42.805,6.029,13.2941,4.59957,2471.912,2017-11-13T09:02:05Z
2017-11-13T07:03:41Z,42.805,6.029,13.2935,4.59957,2471.912,2017-11-13T09:05:08Z
2017-11-13T07:06:44Z,42.805,6.029,13.2935,4.59957,2471.866,2017-11-13T09:08:11Z
2017-11-13T07:09:47Z,42.805,6.029,13.2935,4.59958,2471.912,2017-11-13T09:11:14Z
2017-11-13T07:12:50Z,42.805,6.029,13.2939,4.59957,2471.912,2017-11-13T09:14:17Z
2017-11-13T07:15:53Z,42.805,6.029,13.2932,4.59957,2471.889,2017-11-13T09:17:20Z
2017-11-13T07:18:55Z,42.805,6.029,13.2940,4.59957,2471.852,2017-11-13T09:20:23Z
2017-11-13T07:21:58Z,42.805,6.029,13.2941,4.59958,2471.912,2017-11-13T09:23:25Z
2017-11-13T07:25:01Z,42.805,6.029,13.2940,4.59958,2471.889,2017-11-13T09:26:28Z
2017-11-13T07:28:04Z,42.805,6.029,13.2940,4.59959,2471.874,2017-11-13T09:29:31Z
2017-11-13T07:31:07Z,42.805,6.029,13.2941,4.59958,2471.866,2017-11-13T09:32:34Z
2017-11-13T07:34:10Z,42.805,6.029,13.2943,4.59960,2471.852,2017-11-13T09:35:37Z
2017-11-13T07:37:13Z,42.805,6.029,13.2954,4.59970,2471.889,2017-11-13T09:38:40Z
2017-11-13T07:40:16Z,42.805,6.029,13.2951,4.59970,2471.889,2017-11-13T09:41:43Z
2017-11-13T07:43:19Z,42.805,6.029,13.2942,4.59958,2471.912,2017-11-13T09:44:46Z
2017-11-13T07:46:21Z,42.805,6.029,13.2938,4.59958,2471.874,2017-11-13T09:47:49Z
2017-11-13T07:49:24Z,42.805,6.029,13.2939,4.59958,2471.912,2017-11-13T09:50:51Z
2017-11-13T07:52:27Z,42.805,6.029,13.2941,4.59959,2471.866,2017-11-13T09:53:54Z
2017-11-13T07:55:30Z,42.805,6.029,13.2943,4.59958,2471.844,2017-11-13T09:56:57Z
2017-11-13T07:58:33Z,42.805,6.029,13.2940,4.59959,2471.866,2017-11-13T10:00:00Z
2017-11-13T08:01:36Z,42.805,6.029,13.2940,4.59958,2471.912,2017-11-13T10:03:03Z
2017-11-13T08:04:39Z,42.805,6.029,13.2943,4.59958,2471.889,2017-11-13T10:06:06Z
2017-11-13T08:07:42Z,42.805,6.029,13.2945,4.59958,2471.897,2017-11-13T10:09:09Z
2017-11-13T08:10:45Z,42.805,6.029,13.2939,4.59962,2471.866,2017-11-13T10:12:12Z
2017-11-13T08:13:47Z,42.805,6.029,13.2938,4.59959,2471.866,2017-11-13T10:15:15Z
2017-11-13T08:16:50Z,42.805,6.029,13.2942,4.59961,2471.889,2017-11-13T10:18:18Z
2017-11-13T08:19:53Z,42.805,6.029,13.2943,4.59959,2471.852,2017-11-13T10:21:20Z
2017-11-13T08:22:56Z,42.805,6.029,13.2938,4.59958,2471.866,2017-11-13T10:24:23Z
2017-11-13T08:25:59Z,42.805,6.029,13.2943,4.59958,2471.852,2017-11-13T10:27:26Z
2017-11-13T08:29:02Z,42.805,6.029,13.2943,4.59958,2471.866,2017-11-13T10:30:29Z
2017-11-13T08:32:05Z,42.805,6.029,13.2943,4.59959,2471.866,2017-11-13T10:33:32Z
2017-11-13T08:35:08Z,42.805,6.029,13.2939,4.59962,2471.829,2017-11-13T10:36:35Z
2017-11-13T08:38:11Z,42.805,6.029,13.2940,4.59958,2471.889,2017-11-13T10:39:38Z
2017-11-13T08:41:14Z,42.805,6.029,13.2942,4.59958,2471.852,2017-11-13T10:42:41Z
2017-11-13T08:44:16Z,42.805,6.029,13.2945,4.59972,2471.844,2017-11-13T10:45:44Z
2017-11-13T08:47:19Z,42.805,6.029,13.2975,4.59964,2471.866,2017-11-13T10:48:47Z
2017-11-13T08:50:22Z,42.805,6.029,13.2937,4.59961,2471.844,2017-11-13T10:51:49Z
2017-11-13T08:53:25Z,42.805,6.029,13.2943,4.59961,2471.866,2017-11-13T10:54:52Z
2017-11-13T08:56:28Z,42.805,6.029,13.2941,4.59964,2471.866,2017-11-13T10:57:55Z
2017-11-13T08:59:31Z,42.805,6.029,13.2939,4.59960,2471.866,2017-11-13T11:00:58Z
2017-11-13T09:02:34Z,42.805,6.029,13.2943,4.59959,2471.866,2017-11-13T11:04:01Z
2017-11-13T09:05:37Z,42.805,6.029,13.2943,4.59958,2471.852,2017-11-13T11:07:04Z
2017-11-13T09:08:40Z,42.805,6.029,13.2941,4.59958,2471.866,2017-11-13T11:10:07Z
2017-11-13T09:11:43Z,42.805,6.029,13.2941,4.59967,2471.889,2017-11-13T11:13:10Z
2017-11-13T09:14:45Z,42.805,6.029,13.2945,4.59977,2471.866,2017-11-13T11:16:13Z
2017-11-13T09:17:48Z,42.805,6.029,13.2962,4.59968,2471.866,2017-11-13T11:19:15Z
2017-11-13T09:20:51Z,42.805,6.029,13.2954,4.59972,2471.844,2017-11-13T11:22:18Z
2017-11-13T09:23:54Z,42.805,6.029,13.2970,4.59993,2471.844,2017-11-13T11:25:21Z
2017-11-13T09:26:57Z,42.805,6.029,13.2954,4.59981,2471.866,2017-11-13T11:28:24Z
2017-11-13T09:30:00Z,42.805,6.029,13.2951,4.60000,2471.866,2017-11-13T11:31:27Z
2017-11-13T09:33:03Z,42.805,6.029,13.2952,4.59989,2471.844,2017-11-13T11:34:30Z
2017-11-13T09:36:06Z,42.805,6.029,13.2962,4.59990,2471.866,2017-11-13T11:37:33Z
2017-11-13T09:39:09Z,42.805,6.029,13.2947,4.59971,2471.836,2017-11-13T11:40:36Z
2017-11-13T09:42:12Z,42.805,6.029,13.2954,4.59977,2471.852,2017-11-13T11:43:39Z
2017-11-13T09:45:14Z,42.805,6.029,13.2975,4.59969,2471.866,2017-11-13T11:46:42Z
2017-11-13T09:48:17Z,42.805,6.029,13.2974,4.60021,2471.889,2017-11-13T11:49:44Z
2017-11-13T09:51:20Z,42.805,6.029,13.2951,4.59991,2471.844,2017-11-13T11:52:47Z
2017-11-13T09:54:23Z,42.805,6.029,13.2961,4.60003,2471.874,2017-11-13T11:55:50Z
2017-11-13T09:57:26Z,42.805,6.029,13.2954,4.59994,2471.866,2017-11-13T11:58:53Z
2017-11-13T10:00:29Z,42.805,6.029,13.2948,4.59974,2471.866,2017-11-13T12:01:56Z
2017-11-13T10:03:32Z,42.805,6.029,13.2962,4.60015,2471.866,2017-11-13T12:04:59Z
2017-11-13T10:06:35Z,42.805,6.029,13.2964,4.60045,2471.866,2017-11-13T12:08:02Z
2017-11-13T10:09:38Z,42.805,6.029,13.2973,4.59989,2471.844,2017-11-13T12:11:05Z
2017-11-13T10:12:40Z,42.805,6.029,13.2949,4.59995,2471.829,2017-11-13T12:14:08Z
2017-11-13T10:15:43Z,42.805,6.029,13.2979,4.59976,2471.889,2017-11-13T12:17:11Z
2017-11-13T10:18:46Z,42.805,6.029,13.2948,4.59975,2471.852,2017-11-13T12:20:13Z
2017-11-13T10:21:49Z,42.805,6.029,13.2956,4.59988,2471.874,2017-11-13T12:23:16Z
2017-11-13T10:24:52Z,42.805,6.029,13.2968,4.60031,2471.844,2017-11-13T12:26:19Z
2017-11-13T10:27:55Z,42.805,6.029,13.2942,4.60027,2471.844,2017-11-13T12:29:22Z
2017-11-13T10:30:58Z,42.805,6.029,13.2986,4.59998,2471.852,2017-11-13T12:32:25Z
2017-11-13T10:34:01Z,42.805,6.029,13.2986,4.59988,2471.889,2017-11-13T12:35:28Z
2017-11-13T10:37:04Z,42.805,6.029,13.2945,4.59971,2471.874,2017-11-13T12:38:31Z
2017-11-13T10:40:07Z,42.805,6.029,13.2978,4.60008,2471.866,2017-11-13T12:41:34Z
2017-11-13T10:43:09Z,42.805,6.029,13.2970,4.60046,2471.874,2017-11-13T12:44:37Z
2017-11-13T10:46:12Z,42.805,6.029,13.2961,4.60046,2471.874,2017-11-13T12:47:39Z
2017-11-13T10:49:15Z,42.805,6.029,13.2971,4.60052,2471.889,2017-11-13T12:50:42Z
2017-11-13T10:52:18Z,42.805,6.029,13.2973,4.60068,2471.866,2017-11-13T12:53:45Z
2017-11-13T10:55:21Z,42.805,6.029,13.2968,4.60054,2471.881,2017-11-13T12:56:48Z
2017-11-13T10:58:24Z,42.805,6.029,13.2986,4.60035,2471.889,2017-11-13T12:59:51Z
2017-11-13T11:01:27Z,42.805,6.029,13.2978,4.60046,2471.866,2017-11-13T13:02:54Z
2017-11-13T11:04:30Z,42.805,6.029,13.2968,4.60020,2471.889,2017-11-13T13:05:57Z
2017-11-13T11:07:33Z,42.805,6.029,13.2971,4.60063,2471.866,2017-11-13T13:09:00Z
2017-11-13T11:10:36Z,42.805,6.029,13.2972,4.60022,2471.889,2017-11-13T13:12:03Z
2017-11-13T11:13:38Z,42.805,6.029,13.2979,4.60007,2471.889,2017-11-13T13:15:06Z
2017-11-13T11:16:41Z,42.805,6.029,13.2979,4.60001,2471.912,2017-11-13T13:18:08Z
2017-11-13T11:19:44Z,42.805,6.029,13.2981,4.60005,2471.934,2017-11-13T13:21:11Z
2017-11-13T11:22:47Z,42.805,6.029,13.2978,4.60006,2471.904,2017-11-13T13:24:14Z
2017-11-13T11:25:50Z,42.805,6.029,13.2966,4.60023,2471.889,2017-11-13T13:27:17Z
2017-11-13T11:28:53Z,42.805,6.029,13.2979,4.60039,2471.912,2017-11-13T13:30:20Z
2017-11-13T11:31:56Z,42.805,6.029,13.2979,4.60015,2471.912,2017-11-13T13:33:23Z
2017-11-13T11:34:59Z,42.805,6.029,13.2968,4.59981,2471.912,2017-11-13T13:36:26Z
2017-11-13T11:38:02Z,42.805,6.029,13.2978,4.59992,2471.889,2017-11-13T13:39:29Z
2017-11-13T11:41:05Z,42.805,6.029,13.2983,4.59983,2471.919,2017-11-13T13:42:32Z
2017-11-13T11:44:07Z,42.805,6.029,13.3042,4.59981,2471.889,2017-11-13T13:45:35Z
2017-11-13T11:47:10Z,42.805,6.029,13.2982,4.60008,2471.912,2017-11-13T13:48:37Z
2017-11-13T11:50:13Z,42.805,6.029,13.2986,4.59978,2471.919,2017-11-13T13:51:40Z
2017-11-13T11:53:16Z,42.805,6.029,13.2959,4.59969,2471.934,2017-11-13T13:54:43Z
2017-11-13T11:56:19Z,42.805,6.029,13.2958,4.59975,2471.912,2017-11-13T13:57:46Z
2017-11-13T11:59:22Z,42.805,6.029,13.2950,4.59964,2471.934,2017-11-13T14:00:49Z
2017-11-13T12:02:25Z,42.805,6.029,13.2950,4.59970,2471.897,2017-11-13T14:03:52Z
2017-11-13T12:05:28Z,42.805,6.029,13.2964,4.59972,2471.897,2017-11-13T14:06:55Z
2017-11-13T12:08:31Z,42.805,6.029,13.2977,4.59981,2471.934,2017-11-13T14:09:58Z
2017-11-13T12:11:33Z,42.805,6.029,13.2956,4.60006,2471.919,2017-11-13T14:13:01Z
2017-11-13T12:14:36Z,42.805,6.029,13.2967,4.60006,2471.949,2017-11-13T14:16:04Z
2017-11-13T12:17:39Z,42.805,6.029,13.2964,4.59973,2471.957,2017-11-13T14:19:06Z
2017-11-13T12:20:42Z,42.805,6.029,13.2957,4.59973,2471.957,2017-11-13T14:22:09Z
2017-11-13T12:23:45Z,42.805,6.029,13.2956,4.60003,2471.897,2017-11-13T14:25:12Z
2017-11-13T12:26:48Z,42.805,6.029,13.2950,4.59974,2471.912,2017-11-13T14:28:15Z
2017-11-13T12:29:51Z,42.805,6.029,13.2945,4.59969,2471.934,2017-11-13T14:31:18Z
2017-11-13T12:32:54Z,42.805,6.029,13.2940,4.59970,2471.934,2017-11-13T14:34:21Z
2017-11-13T12:35:57Z,42.805,6.029,13.2943,4.59976,2471.957,2017-11-13T14:37:24Z
2017-11-13T12:39:00Z,42.805,6.029,13.2945,4.59974,2471.942,2017-11-13T14:40:27Z
2017-11-13T12:42:02Z,42.805,6.029,13.2943,4.59974,2471.934,2017-11-13T14:43:30Z
2017-11-13T12:45:05Z,42.805,6.029,13.2944,4.59979,2471.897,2017-11-13T14:46:32Z
2017-11-13T12:48:08Z,42.805,6.029,13.2942,4.59980,2471.957,2017-11-13T14:49:35Z
2017-11-13T12:51:11Z,42.805,6.029,13.2936,4.59974,2471.957,2017-11-13T14:52:38Z
2017-11-13T12:54:14Z,42.805,6.029,13.2944,4.59995,2471.942,2017-11-13T14:55:41Z
2017-11-13T12:57:17Z,42.805,6.029,13.2943,4.59967,2471.957,2017-11-13T14:58:44Z
2017-11-13T13:00:20Z,42.805,6.029,13.2939,4.59967,2471.942,2017-11-13T15:01:47Z
2017-11-13T13:03:23Z,42.805,6.029,13.2940,4.59969,2471.942,2017-11-13T15:04:50Z
2017-11-13T13:06:26Z,42.805,6.029,13.2942,4.59968,2471.964,2017-11-13T15:07:53Z
2017-11-13T13:09:28Z,42.805,6.029,13.2939,4.59969,2471.979,2017-11-13T15:10:56Z
2017-11-13T13:12:31Z,42.805,6.029,13.2943,4.59967,2471.942,2017-11-13T15:13:59Z
2017-11-13T13:15:34Z,42.805,6.029,13.2940,4.59968,2471.964,2017-11-13T15:17:01Z
2017-11-13T13:18:37Z,42.805,6.029,13.2940,4.59969,2471.964,2017-11-13T15:20:04Z
2017-11-13T13:21:40Z,42.805,6.029,13.2941,4.59967,2471.957,2017-11-13T15:23:07Z
2017-11-13T13:24:43Z,42.805,6.029,13.2944,4.59965,2471.957,2017-11-13T15:26:10Z
2017-11-13T13:27:46Z,42.805,6.029,13.2941,4.59964,2471.919,2017-11-13T15:29:13Z
2017-11-13T13:30:49Z,42.805,6.029,13.2940,4.59966,2471.979,2017-11-13T15:32:16Z
2017-11-13T13:33:52Z,42.805,6.029,13.2939,4.59964,2471.964,2017-11-13T15:35:19Z
2017-11-13T13:36:55Z,42.805,6.029,13.2942,4.59962,2471.942,2017-11-13T15:38:22Z
2017-11-13T13:39:57Z,42.805,6.029,13.2936,4.59962,2471.979,2017-11-13T15:41:25Z
2017-11-13T13:43:00Z,42.805,6.029,13.2940,4.59961,2472.002,2017-11-13T15:44:28Z
2017-11-13T13:46:03Z,42.805,6.029,13.2940,4.59961,2472.002,2017-11-13T15:47:30Z
2017-11-13T13:49:06Z,42.805,6.029,13.2940,4.59961,2472.002,2017-11-13T15:50:33Z
2017-11-13T13:52:09Z,42.805,6.029,13.2939,4.59962,2472.002,2017-11-13T15:53:36Z
2017-11-13T13:55:12Z,42.805,6.029,13.2940,4.59964,2472.002,2017-11-13T15:56:39Z
2017-11-13T13:58:15Z,42.805,6.029,13.2943,4.59962,2471.964,2017-11-13T15:59:42Z
2017-11-13T14:01:18Z,42.805,6.029,13.2939,4.59962,2472.002,2017-11-13T16:02:45Z
2017-11-13T14:04:21Z,42.805,6.029,13.2938,4.59963,2471.987,2017-11-13T16:05:48Z
2017-11-13T14:07:24Z,42.805,6.029,13.2943,4.59964,2472.002,2017-11-13T16:08:51Z
2017-11-13T14:10:26Z,42.805,6.029,13.2938,4.59962,2472.002,2017-11-13T16:11:54Z
2017-11-13T14:13:29Z,42.805,6.029,13.2940,4.59964,2472.024,2017-11-13T16:14:56Z
2017-11-13T14:16:32Z,42.805,6.029,13.2938,4.59961,2471.987,2017-11-13T16:17:59Z
2017-11-13T14:19:35Z,42.805,6.029,13.2939,4.59963,2472.002,2017-11-13T16:21:02Z
2017-11-13T14:22:38Z,42.805,6.029,13.2941,4.59962,2471.987,2017-11-13T16:24:05Z
2017-11-13T14:25:41Z,42.805,6.029,13.2939,4.59961,2472.01,2017-11-13T16:27:08Z
2017-11-13T14:28:44Z,42.805,6.029,13.2939,4.59961,2472.002,2017-11-13T16:30:11Z
2017-11-13T14:31:47Z,42.805,6.029,13.2941,4.59961,2472.024,2017-11-13T16:33:14Z
2017-11-13T14:34:50Z,42.805,6.029,13.2939,4.59962,2472.002,2017-11-13T16:36:17Z
2017-11-13T14:37:53Z,42.805,6.029,13.2940,4.59963,2471.987,2017-11-13T16:39:20Z
2017-11-13T14:40:55Z,42.805,6.029,13.2939,4.59959,2472.002,2017-11-13T16:42:23Z
2017-11-13T14:43:58Z,42.805,6.029,13.2941,4.59961,2472.002,2017-11-13T16:45:25Z
2017-11-13T14:47:01Z,42.805,6.029,13.2939,4.59960,2471.987,2017-11-13T16:48:28Z
2017-11-13T14:50:04Z,42.805,6.029,13.2939,4.59961,2472.024,2017-11-13T16:51:31Z
2017-11-13T14:53:07Z,42.805,6.029,13.2939,4.59961,2472.024,2017-11-13T16:54:34Z
2017-11-13T14:56:10Z,42.805,6.029,13.2936,4.59961,2472.069,2017-11-13T16:57:37Z
2017-11-13T14:59:13Z,42.805,6.029,13.2936,4.59961,2472.01,2017-11-13T17:00:40Z